Regional Weather Roundup
Issued by NWS Jackson, KY

Home | Current Version | Previous Version | Text Only | Print | Product List | Glossary On
Versions: 1 2 3 4 5 6 7 8 9 10 11 12 13 14 15 16 17 18 19 20 21 22 23 24 25 26 27 28 29 30 31 32 33 34 35 36 37 38 39 40 41 42 43 44 45 46 47 48 49 50
000
ASUS43 KJKL 070710
RWRJKL

EAST KENTUCKY HOURLY WEATHER ROUNDUP
NATIONAL WEATHER SERVICE JACKSON KY
300 AM EDT THU MAY 07 2015

NOTE: "FAIR" INDICATES FEW OR NO CLOUDS BELOW 12,000 FEET WITH
NO SIGNIFICANT WEATHER AND/OR OBSTRUCTIONS TO VISIBILITY.

* THESE REPORTS ARE NOT UNDER NWS QUALITY CONTROL AND MAY NOT
  REPORT WEATHER SUCH AS PRECIPITATION AND FOG.

KYZ079-080-083-085-087-088-110-112-115-119-120-070800
...EASTERN KENTUCKY...

CITY           SKY/WX    TMP DP  RH WIND       PRES   REMARKS
JACKSON        MOCLDY    69  54  58 SE5       30.12F
LONDON         PTCLDY    61  55  81 CALM      30.11F
SOMERSET*      MOCLDY    59  55  88 CALM      30.11F
MONTICELLO*    CLEAR     57  56  97 CALM      30.13F FOG
MIDDLESBORO*   CLEAR     57  56  98 CALM      30.13F
HARLAN APT*    PTSUNNY   57  57 100 E5        30.15F
BLACK MTN*       N/A     59  50  72 S5          N/A
PIKEVILLE APT* CLEAR     64  57  77 SE3       30.13F
BIG SANDY*     SUNNY     65  57  74 CALM      30.12F
MOREHEAD APT*  MOSUNNY   64  54  68 CALM      30.13F
$$

KYZ035-036-041-042-044-050-067-078-099-070800
...CENTRAL KENTUCKY...

CITY           SKY/WX    TMP DP  RH WIND       PRES   REMARKS
MT STERLING*   CLEAR     59  57  94 CALM      30.12F
FLEMING/MASON* CLEAR     64  55  72 CALM      30.12F
DANVILLE*      PTCLDY    59  55  88 CALM      30.11F FOG
RICHMOND*      PTCLDY    61  55  82 CALM      30.10F
LEXINGTON      CLEAR     63  56  78 CALM      30.10F
FRANKFORT      CLEAR     61  57  87 SE5       30.09F
$$

KYZ091>093-OHZ055-061-077-WVZ005-015-034-035-042-070800
...SOUTHERN OHIO/WEST VIRGINIA...

CITY           SKY/WX    TMP DP  RH WIND       PRES   REMARKS
COVINGTON      CLEAR     66  54  65 CALM      30.10F
COLUMBUS       CLEAR     65  58  78 NE5       30.13S
DAYTON         CLEAR     66  58  75 E6        30.14F
WILMINGTON     CLEAR     64  53  67 NE7       30.12F
HUNTINGTON     CLEAR     60  57  89 CALM      30.10F
CHARLESTON     CLEAR     58  56  93 CALM      30.12F
PINEVILLE*     MOCLDY    57  57 100 MISG      30.21F
BECKLEY        PTCLDY    61  50  67 CALM      30.20F
BLUEFIELD      MOCLDY    64  51  62 SE3       30.21F
$$

VAZ002-007-008-TNZ017-027-036-066-071-070800
...SOUTHWEST VIRGINIA/EAST TENNESSEE...

CITY           SKY/WX    TMP DP  RH WIND       PRES   REMARKS
WISE*          CLEAR     63  48  59 CALM      30.21S
JONESVILLE*    SUNNY     55  55 100 CALM      30.16F
ABINGDON*      MOCLDY    61  56  85 CALM      30.17F
BRISTOL        MOCLDY    56  55  97 CALM      30.15F FOG
KNOXVILLE      PTCLDY    66  57  72 S3        30.11S
OAK RIDGE      PTCLDY    64  59  83 CALM      30.13S
CROSSVILLE     MOCLDY    63  53  70 CALM      30.16S HAZE
NASHVILLE      CLEAR     62  57  83 S3        30.10F
$$

...KEY TO REMARKS...
VSB - VISIBILITY IN MILES
WCI - WIND CHILL INDEX
HX  - HEAT INDEX

$$


USA.gov is the U.S. government's official web portal to all federal, state and local government web resources and services.